DW8492 Weather Reports


time (UTC)temp
C
wind
direction
speed
KPH
gust
KPH
rain 1hr
cm
rain 24hr
cm
rain mn
cm
humidity
%
barometer
mb
20260510011535 16 239 0.0 9.7 0.00 0.46 0.30 67 1006.4
20260510010105 16 207 0.0 6.4 0.00 0.46 0.30 67 1006.3
20260510004528 16 199 1.6 6.4 0.00 0.46 0.30 67 1006.3
20260510003106 16 266 0.0 4.8 0.00 0.46 0.30 66 1006.2
20260510001530 17 286 0.0 6.4 0.00 0.46 0.30 64 1006.1
20260510000046 17 259 1.6 6.4 0.00 0.46 0.30 62 1005.8
20260509234509 17 280 4.8 11.3 0.00 0.46 0.30 61 1005.7
20260509233051 18 183 1.6 14.5 0.00 0.46 0.30 60 1005.6
20260509231604 18 239 3.2 9.7 0.00 0.46 0.30 59 1005.6
20260509230030 18 260 6.4 12.9 0.00 0.46 0.30 57 1005.6
20260509224510 20 238 3.2 9.7 0.00 0.46 0.30 57 1005.6
20260509223059 20 246 3.2 11.3 0.00 0.46 0.30 57 1005.2
20260509221521 20 259 4.8 12.9 0.00 0.46 0.30 56 1005.5
20260509220050 20 255 3.2 11.3 0.00 0.46 0.30 57 1005.6
20260509214510 20 245 4.8 11.3 0.00 0.53 0.30 56 1005.6
20260509213047 19 236 3.2 16.1 0.00 0.53 0.30 59 1005.9
20260509211514 19 242 6.4 12.9 0.00 0.53 0.30 59 1005.8
20260509210112 19 208 3.2 11.3 0.00 0.53 0.30 60 1006.2
20260509204515 19 179 4.8 12.9 0.00 0.53 0.30 61 1006.3
20260509203019 18 248 4.8 9.7 0.00 0.53 0.30 62 1006.3
20260509201516 18 227 3.2 11.3 0.00 0.53 0.30 63 1006.7
20260509194515 18 128 3.2 12.9 0.00 0.53 0.30 65 1007.0
20260509193058 18 90 4.8 11.3 0.00 0.53 0.30 69 1007.0
20260509191638 17 248 3.2 12.9 0.00 0.53 0.30 67 1007.2
20260509190106 18 292 4.8 12.9 0.00 0.53 0.30 68 1007.3
20260509184521 17 301 4.8 22.5 0.00 0.53 0.30 74 1007.5
20260509183046 16 227 4.8 17.7 0.00 0.53 0.30 72 1007.6
20260509181501 16 213 3.2 12.9 0.00 0.53 0.30 75 1007.7
20260509180035 16 252 3.2 12.9 0.00 0.53 0.30 80 1007.7
20260509174612 15 112 3.2 9.7 0.00 0.53 0.30 82 1007.8
20260509173037 15 249 3.2 8.0 0.00 0.53 0.30 83 1007.9
20260509171608 14 248 4.8 11.3 0.00 0.53 0.30 87 1007.8
20260509170031 13 237 3.2 9.7 0.00 0.53 0.30 91 1007.8
20260509164602 13 210 3.2 9.7 0.00 0.53 0.30 94 1007.7
20260509163034 13 219 1.6 9.7 0.00 0.53 0.30 96 1007.7
20260509161605 12 285 1.6 11.3 0.00 0.53 0.30 96 1007.7
20260509160033 12 254 0.0 6.4 0.03 0.53 0.30 97 1007.7
20260509154602 11 198 0.0 6.4 0.05 0.53 0.30 97 1007.7
20260509153021 11 167 1.6 9.7 0.10 0.53 0.30 97 1007.7
20260509151552 11 233 0.0 4.8 0.13 0.53 0.30 97 1007.6
20260509150025 11 223 0.0 8.0 0.10 0.51 0.28 97 1007.7
20260509144547 10 241 0.0 6.4 0.08 0.48 0.25 97 1007.8
20260509143015 10 251 0.0 3.2 0.03 0.43 0.20 97 1007.8
20260509141553 10 248 0.0 4.8 0.03 0.41 0.18 97 1007.8
20260509140023 10 251 0.0 4.8 0.05 0.41 0.18 97 1007.8
20260509134628 10 229 0.0 6.4 0.08 0.41 0.18 97 1007.9
20260509133027 10 241 0.0 8.0 0.10 0.41 0.18 97 1008.0
20260509131607 10 162 3.2 11.3 0.10 0.38 0.15 97 1008.0
20260509130033 10 235 1.6 6.4 0.08 0.36 0.13 97 1008.1
20260509124541 10 238 1.6 4.8 0.05 0.33 0.10 97 1008.1
20260509123008 10 231 0.0 3.2 0.03 0.30 0.08 97 1008.2
20260509121554 10 207 1.6 6.4 0.00 0.28 0.05 97 1008.1
20260509120012 10 313 0.0 3.2 0.00 0.28 0.05 97 1008.1
20260509114657 10 249 0.0 4.8 0.00 0.28 0.05 97 1008.1
20260509113013 9 255 1.6 8.0 0.00 0.28 0.05 97 1008.2
20260509111544 9 266 0.0 4.8 0.00 0.28 0.05 97 1008.0
20260509110029 9 163 0.0 3.2 0.00 0.28 0.05 97 1008.0
20260509104601 8 159 0.0 3.2 0.00 0.28 0.05 97 1008.0
20260509103024 8 157 0.0 0.0 0.00 0.28 0.05 97 1007.9
20260509101605 8 157 0.0 0.0 0.00 0.28 0.05 96 1007.9
20260509100035 8 157 0.0 0.0 0.00 0.28 0.05 96 1008.0
20260509094609 8 157 0.0 0.0 0.00 0.28 0.05 97 1008.2
20260509093004 8 157 0.0 0.0 0.03 0.28 0.05 96 1008.3
20260509091528 8 157 0.0 0.0 0.03 0.28 0.05 96 1008.3
20260509090104 8 157 0.0 0.0 0.03 0.28 0.05 96 1008.6
20260509084530 8 157 0.0 0.0 0.03 0.28 0.05 96 1008.7
20260509083104 8 157 0.0 0.0 0.00 0.25 0.03 96 1008.8
20260509081534 8 157 0.0 0.0 0.00 0.25 0.03 96 1008.8
20260509080105 8 157 0.0 0.0 0.00 0.25 0.03 96 1008.9
20260509074531 8 157 0.0 0.0 0.00 0.25 0.03 96 1008.8
20260509073109 8 157 0.0 1.6 0.00 0.25 0.03 96 1008.9
20260509071532 8 321 0.0 1.6 0.00 0.25 0.03 96 1008.8
20260509070108 8 324 0.0 0.0 0.00 0.25 0.03 96 1008.8
20260509064535 8 324 0.0 0.0 0.00 0.25 0.03 96 1008.8
20260509063110 8 325 0.0 0.0 0.00 0.25 0.03 96 1009.1
20260509061542 8 324 0.0 0.0 0.00 0.25 0.03 96 1009.1
20260509060004 8 324 0.0 0.0 0.00 0.25 0.03 96 1009.3
20260509054543 8 324 0.0 0.0 0.00 0.25 0.03 96 1009.7
20260509053007 8 324 0.0 0.0 0.00 0.25 0.03 96 1009.9
20260509051538 8 325 0.0 0.0 0.00 0.25 0.03 95 1010.1
20260509050002 8 324 0.0 0.0 0.00 0.00 0.03 96 1010.2
20260509044536 8 325 0.0 0.0 0.03 0.25 0.03 95 1010.1
20260509043110 8 324 0.0 0.0 0.03 0.25 0.03 95 1010.4
20260509041538 8 325 0.0 0.0 0.03 0.25 0.03 95 1010.6
20260509040109 8 324 0.0 0.0 0.03 0.23 0.00 95 1010.8
20260509034546 8 324 0.0 0.0 0.03 0.23 0.23 95 1011.0
20260509033058 8 324 0.0 0.0 0.05 0.23 0.23 95 1011.2
20260509031509 9 325 0.0 0.0 0.08 0.23 0.23 95 1011.3
20260509030155 9 324 0.0 0.0 0.08 0.20 0.20 95 1011.5
20260509024516 9 324 0.0 0.0 0.10 0.20 0.20 95 1011.8
20260509023113 9 324 0.0 0.0 0.08 0.18 0.18 94 1012.0
20260509021556 9 324 0.0 0.0 0.05 0.15 0.15 94 1012.0
20260509020021 9 324 0.0 0.0 0.05 0.13 0.13 94 1011.9
20260509014558 9 324 0.0 3.2 0.03 0.10 0.10 94 1011.7
20260509013022 9 324 0.0 0.0 0.03 0.10 0.10 93 1010.9